owner,sensor,date,latitude,longitude,air_temperature,qcFlag 
DISL,ioos:station:DISL:MHPA:1,2017-01-01T06:30:00Z,30.6671,-87.9365,17.62,1111122 
DISL,ioos:station:DISL:MHPA:1,2017-01-01T07:00:00Z,30.6671,-87.9365,17.29,1111122 
DISL,ioos:station:DISL:MHPA:1,2017-01-01T07:30:00Z,30.6671,-87.9365,17.08,1111122 
DISL,ioos:station:DISL:MHPA:1,2017-01-01T08:30:00Z,30.6671,-87.9365,18.13,1111122 
DISL,ioos:station:DISL:MHPA:1,2017-01-01T09:00:00Z,30.6671,-87.9365,18.0,1111122 
DISL,ioos:station:DISL:MHPA:1,2017-01-01T09:30:00Z,30.6671,-87.9365,17.46,1111122 
DISL,ioos:station:DISL:MHPA:1,2017-01-01T10:00:00Z,30.6671,-87.9365,17.29,1111122 
DISL,ioos:station:DISL:MHPA:1,2017-01-01T10:30:00Z,30.6671,-87.9365,17.02,1111122 
DISL,ioos:station:DISL:MHPA:1,2017-01-01T11:00:00Z,30.6671,-87.9365,17.69,1111122 
DISL,ioos:station:DISL:MHPA:1,2017-01-01T11:30:00Z,30.6671,-87.9365,17.86,1111122 
DISL,ioos:station:DISL:MHPA:1,2017-01-01T12:00:00Z,30.6671,-87.9365,17.49,1111122 
DISL,ioos:station:DISL:MHPA:1,2017-01-01T12:30:00Z,30.6671,-87.9365,17.02,1111122 
DISL,ioos:station:DISL:MHPA:1,2017-01-01T13:00:00Z,30.6671,-87.9365,17.05,1111122 
DISL,ioos:station:DISL:MHPA:1,2017-01-01T13:30:00Z,30.6671,-87.9365,17.42,1111122 
DISL,ioos:station:DISL:MHPA:1,2017-01-01T14:00:00Z,30.6671,-87.9365,17.9,1111122 
DISL,ioos:station:DISL:MHPA:1,2017-01-01T14:30:00Z,30.6671,-87.9365,18.27,1111122 
DISL,ioos:station:DISL:MHPA:1,2017-01-01T15:00:00Z,30.6671,-87.9365,18.4,1111122 
DISL,ioos:station:DISL:MHPA:1,2017-01-01T15:30:00Z,30.6671,-87.9365,17.78,1111122 
DISL,ioos:station:DISL:MHPA:1,2017-01-01T16:00:00Z,30.6671,-87.9365,18.97,1111122 
DISL,ioos:station:DISL:MHPA:1,2017-01-01T16:30:00Z,30.6671,-87.9365,20.72,1111122 
DISL,ioos:station:DISL:MHPA:1,2017-01-01T17:00:00Z,30.6671,-87.9365,20.34,1111122 
DISL,ioos:station:DISL:MHPA:1,2017-01-01T17:30:00Z,30.6671,-87.9365,20.2,1111122 
DISL,ioos:station:DISL:MHPA:1,2017-01-01T18:00:00Z,30.6671,-87.9365,19.79,1111122 
DISL,ioos:station:DISL:MHPA:1,2017-01-01T19:00:00Z,30.6671,-87.9365,19.45,1111122 
DISL,ioos:station:DISL:MHPA:1,2017-01-01T19:30:00Z,30.6671,-87.9365,19.86,1111122 
DISL,ioos:station:DISL:MHPA:1,2017-01-01T20:00:00Z,30.6671,-87.9365,19.82,1111122 
DISL,ioos:station:DISL:MHPA:1,2017-01-01T20:30:00Z,30.6671,-87.9365,18.74,1111122 
DISL,ioos:station:DISL:MHPA:1,2017-01-01T21:00:00Z,30.6671,-87.9365,19.53,1111122 
DISL,ioos:station:DISL:MHPA:1,2017-01-01T22:00:00Z,30.6671,-87.9365,18.9,1111122 
DISL,ioos:station:DISL:MHPA:1,2017-01-01T22:30:00Z,30.6671,-87.9365,18.43,1111122 
DISL,ioos:station:DISL:MHPA:1,2017-01-01T23:00:00Z,30.6671,-87.9365,18.76,1111122 
DISL,ioos:station:DISL:MHPA:1,2017-01-01T23:30:00Z,30.6671,-87.9365,18.76,1111122 
DISL,ioos:station:DISL:MHPA:1,2017-01-02T00:00:00Z,30.6671,-87.9365,18.87,1111122 
DISL,ioos:station:DISL:MHPA:1,2017-01-02T00:30:00Z,30.6671,-87.9365,19.41,1111122 
DISL,ioos:station:DISL:MHPA:1,2017-01-02T01:00:00Z,30.6671,-87.9365,20.32,1111122 
DISL,ioos:station:DISL:MHPA:1,2017-01-02T01:30:00Z,30.6671,-87.9365,20.21,1111122 
DISL,ioos:station:DISL:MHPA:1,2017-01-02T02:00:00Z,30.6671,-87.9365,20.41,1111122 
DISL,ioos:station:DISL:MHPA:1,2017-01-02T02:30:00Z,30.6671,-87.9365,19.16,1111122 
DISL,ioos:station:DISL:MHPA:1,2017-01-02T03:00:00Z,30.6671,-87.9365,18.7,1111122 
DISL,ioos:station:DISL:MHPA:1,2017-01-02T03:30:00Z,30.6671,-87.9365,18.8,1111122 
DISL,ioos:station:DISL:MHPA:1,2017-01-02T04:00:00Z,30.6671,-87.9365,18.63,1111122 
DISL,ioos:station:DISL:MHPA:1,2017-01-02T04:30:00Z,30.6671,-87.9365,18.56,1111122 
DISL,ioos:station:DISL:MHPA:1,2017-01-02T05:00:00Z,30.6671,-87.9365,18.36,1111122 
DISL,ioos:station:DISL:MHPA:1,2017-01-02T06:00:00Z,30.6671,-87.9365,17.92,1111122 
DISL,ioos:station:DISL:MHPA:1,2017-01-02T06:30:00Z,30.6671,-87.9365,17.99,1111122 
DISL,ioos:station:DISL:MHPA:1,2017-01-02T07:00:00Z,30.6671,-87.9365,18.29,1111122 
DISL,ioos:station:DISL:MHPA:1,2017-01-02T07:30:00Z,30.6671,-87.9365,18.49,1111122 
DISL,ioos:station:DISL:MHPA:1,2017-01-02T08:00:00Z,30.6671,-87.9365,18.46,1111122 
DISL,ioos:station:DISL:MHPA:1,2017-01-02T08:30:00Z,30.6671,-87.9365,18.53,1111122 
DISL,ioos:station:DISL:MHPA:1,2017-01-02T09:00:00Z,30.6671,-87.9365,18.49,1111122 
DISL,ioos:station:DISL:MHPA:1,2017-01-02T09:30:00Z,30.6671,-87.9365,18.76,1111122 
DISL,ioos:station:DISL:MHPA:1,2017-01-02T10:00:00Z,30.6671,-87.9365,18.8,1111122 
DISL,ioos:station:DISL:MHPA:1,2017-01-02T10:30:00Z,30.6671,-87.9365,18.7,1111122 
DISL,ioos:station:DISL:MHPA:1,2017-01-02T11:00:00Z,30.6671,-87.9365,18.9,1111122 
DISL,ioos:station:DISL:MHPA:1,2017-01-02T11:30:00Z,30.6671,-87.9365,18.97,1111122 
DISL,ioos:station:DISL:MHPA:1,2017-01-02T12:00:00Z,30.6671,-87.9365,19.03,1111122 
DISL,ioos:station:DISL:MHPA:1,2017-01-02T12:30:00Z,30.6671,-87.9365,19.37,1111122 
DISL,ioos:station:DISL:MHPA:1,2017-01-02T13:00:00Z,30.6671,-87.9365,19.51,1111122 
DISL,ioos:station:DISL:MHPA:1,2017-01-02T13:30:00Z,30.6671,-87.9365,20.55,1111122 
DISL,ioos:station:DISL:MHPA:1,2017-01-02T14:00:00Z,30.6671,-87.9365,21.02,1111122 
DISL,ioos:station:DISL:MHPA:1,2017-01-02T14:30:00Z,30.6671,-87.9365,21.45,1111122 
DISL,ioos:station:DISL:MHPA:1,2017-01-02T15:00:00Z,30.6671,-87.9365,22.32,1111122 
DISL,ioos:station:DISL:MHPA:1,2017-01-02T15:30:00Z,30.6671,-87.9365,22.69,1111122 
DISL,ioos:station:DISL:MHPA:1,2017-01-02T16:00:00Z,30.6671,-87.9365,22.93,1111122 
DISL,ioos:station:DISL:MHPA:1,2017-01-02T16:30:00Z,30.6671,-87.9365,23.36,1111122 
DISL,ioos:station:DISL:MHPA:1,2017-01-02T17:00:00Z,30.6671,-87.9365,23.22,1111122 
DISL,ioos:station:DISL:MHPA:1,2017-01-02T17:30:00Z,30.6671,-87.9365,22.81,1111122 
DISL,ioos:station:DISL:MHPA:1,2017-01-02T18:00:00Z,30.6671,-87.9365,22.68,1111122 
DISL,ioos:station:DISL:MHPA:1,2017-01-02T18:30:00Z,30.6671,-87.9365,22.14,1111122 
DISL,ioos:station:DISL:MHPA:1,2017-01-02T19:00:00Z,30.6671,-87.9365,22.66,1111122 
DISL,ioos:station:DISL:MHPA:1,2017-01-02T19:30:00Z,30.6671,-87.9365,22.09,1111122 
DISL,ioos:station:DISL:MHPA:1,2017-01-02T20:00:00Z,30.6671,-87.9365,22.29,1111122 
DISL,ioos:station:DISL:MHPA:1,2017-01-02T20:30:00Z,30.6671,-87.9365,21.24,1111122 
DISL,ioos:station:DISL:MHPA:1,2017-01-02T21:00:00Z,30.6671,-87.9365,19.82,1111122 
DISL,ioos:station:DISL:MHPA:1,2017-01-02T21:30:00Z,30.6671,-87.9365,18.85,1111122 
DISL,ioos:station:DISL:MHPA:1,2017-01-02T22:00:00Z,30.6671,-87.9365,18.69,1111122 
DISL,ioos:station:DISL:MHPA:1,2017-01-02T22:30:00Z,30.6671,-87.9365,19.03,1111122 
DISL,ioos:station:DISL:MHPA:1,2017-01-02T23:00:00Z,30.6671,-87.9365,19.68,1111122 
DISL,ioos:station:DISL:MHPA:1,2017-01-02T23:30:00Z,30.6671,-87.9365,17.51,1111122 
DISL,ioos:station:DISL:MHPA:1,2017-01-03T00:00:00Z,30.6671,-87.9365,17.11,1111122 
DISL,ioos:station:DISL:MHPA:1,2017-01-03T00:30:00Z,30.6671,-87.9365,17.08,1111122 
DISL,ioos:station:DISL:MHPA:1,2017-01-03T01:00:00Z,30.6671,-87.9365,17.08,1111122 
DISL,ioos:station:DISL:MHPA:1,2017-01-03T01:30:00Z,30.6671,-87.9365,17.32,1111122 
DISL,ioos:station:DISL:MHPA:1,2017-01-03T02:00:00Z,30.6671,-87.9365,17.35,1111122 
DISL,ioos:station:DISL:MHPA:1,2017-01-03T02:30:00Z,30.6671,-87.9365,17.66,1111122 
DISL,ioos:station:DISL:MHPA:1,2017-01-03T03:00:00Z,30.6671,-87.9365,18.06,1111122 
DISL,ioos:station:DISL:MHPA:1,2017-01-03T03:30:00Z,30.6671,-87.9365,18.4,1111122 
DISL,ioos:station:DISL:MHPA:1,2017-01-03T04:00:00Z,30.6671,-87.9365,18.93,1111122 
DISL,ioos:station:DISL:MHPA:1,2017-01-03T04:30:00Z,30.6671,-87.9365,19.0,1111122 
DISL,ioos:station:DISL:MHPA:1,2017-01-03T05:00:00Z,30.6671,-87.9365,18.12,1111122 
DISL,ioos:station:DISL:MHPA:1,2017-01-03T05:30:00Z,30.6671,-87.9365,17.85,1111122 
DISL,ioos:station:DISL:MHPA:1,2017-01-03T06:00:00Z,30.6671,-87.9365,18.93,1111122 
DISL,ioos:station:DISL:MHPA:1,2017-01-03T06:30:00Z,30.6671,-87.9365,19.47,1111122 
DISL,ioos:station:DISL:MHPA:1,2017-01-03T07:00:00Z,30.6671,-87.9365,19.14,1111122 
DISL,ioos:station:DISL:MHPA:1,2017-01-03T07:30:00Z,30.6671,-87.9365,18.83,1111122 
DISL,ioos:station:DISL:MHPA:1,2017-01-03T08:00:00Z,30.6671,-87.9365,18.49,1111122 
DISL,ioos:station:DISL:MHPA:1,2017-01-03T08:30:00Z,30.6671,-87.9365,17.65,1111122 
DISL,ioos:station:DISL:MHPA:1,2017-01-03T09:00:00Z,30.6671,-87.9365,17.25,1111122 
DISL,ioos:station:DISL:MHPA:1,2017-01-03T09:30:00Z,30.6671,-87.9365,16.81,1111122 
DISL,ioos:station:DISL:MHPA:1,2017-01-03T10:00:00Z,30.6671,-87.9365,16.08,1111122 
DISL,ioos:station:DISL:MHPA:1,2017-01-03T10:30:00Z,30.6671,-87.9365,15.44,1111122 
DISL,ioos:station:DISL:MHPA:1,2017-01-03T11:30:00Z,30.6671,-87.9365,14.7,1111122 
DISL,ioos:station:DISL:MHPA:1,2017-01-03T12:00:00Z,30.6671,-87.9365,14.47,1111122 
DISL,ioos:station:DISL:MHPA:1,2017-01-03T12:30:00Z,30.6671,-87.9365,14.37,1111122 
DISL,ioos:station:DISL:MHPA:1,2017-01-03T13:00:00Z,30.6671,-87.9365,14.24,1111122 
DISL,ioos:station:DISL:MHPA:1,2017-01-03T13:30:00Z,30.6671,-87.9365,14.85,1111122 
DISL,ioos:station:DISL:MHPA:1,2017-01-03T14:00:00Z,30.6671,-87.9365,15.35,1111122 
DISL,ioos:station:DISL:MHPA:1,2017-01-03T14:30:00Z,30.6671,-87.9365,16.66,1111122 
DISL,ioos:station:DISL:MHPA:1,2017-01-03T15:00:00Z,30.6671,-87.9365,16.22,1111122 
DISL,ioos:station:DISL:MHPA:1,2017-01-03T15:30:00Z,30.6671,-87.9365,16.17,1111122 
DISL,ioos:station:DISL:MHPA:1,2017-01-03T16:00:00Z,30.6671,-87.9365,16.06,1111122 
DISL,ioos:station:DISL:MHPA:1,2017-01-03T16:30:00Z,30.6671,-87.9365,16.1,1111122 
DISL,ioos:station:DISL:MHPA:1,2017-01-03T17:00:00Z,30.6671,-87.9365,16.35,1111122 
DISL,ioos:station:DISL:MHPA:1,2017-01-03T17:30:00Z,30.6671,-87.9365,16.31,1111122 
DISL,ioos:station:DISL:MHPA:1,2017-01-03T18:00:00Z,30.6671,-87.9365,16.52,1111122 
DISL,ioos:station:DISL:MHPA:1,2017-01-03T18:30:00Z,30.6671,-87.9365,16.82,1111122 
DISL,ioos:station:DISL:MHPA:1,2017-01-03T19:00:00Z,30.6671,-87.9365,17.06,1111122 
DISL,ioos:station:DISL:MHPA:1,2017-01-03T19:30:00Z,30.6671,-87.9365,17.26,1111122 
DISL,ioos:station:DISL:MHPA:1,2017-01-03T20:00:00Z,30.6671,-87.9365,17.6,1111122 
DISL,ioos:station:DISL:MHPA:1,2017-01-03T20:30:00Z,30.6671,-87.9365,17.7,1111122 
DISL,ioos:station:DISL:MHPA:1,2017-01-03T21:00:00Z,30.6671,-87.9365,18.24,1111122 
DISL,ioos:station:DISL:MHPA:1,2017-01-03T21:30:00Z,30.6671,-87.9365,17.87,1111122 
DISL,ioos:station:DISL:MHPA:1,2017-01-03T22:00:00Z,30.6671,-87.9365,17.7,1111122 
DISL,ioos:station:DISL:MHPA:1,2017-01-03T22:30:00Z,30.6671,-87.9365,17.7,1111122 
DISL,ioos:station:DISL:MHPA:1,2017-01-03T23:00:00Z,30.6671,-87.9365,17.54,1111122 
DISL,ioos:station:DISL:MHPA:1,2017-01-03T23:30:00Z,30.6671,-87.9365,17.82,1111122 
DISL,ioos:station:DISL:MHPA:1,2017-01-04T00:00:00Z,30.6671,-87.9365,17.62,1111122 
DISL,ioos:station:DISL:MHPA:1,2017-01-04T00:30:00Z,30.6671,-87.9365,17.15,1111122 
DISL,ioos:station:DISL:MHPA:1,2017-01-04T01:00:00Z,30.6671,-87.9365,16.52,1111122 
DISL,ioos:station:DISL:MHPA:1,2017-01-04T01:30:00Z,30.6671,-87.9365,16.32,1111122 
DISL,ioos:station:DISL:MHPA:1,2017-01-04T02:00:00Z,30.6671,-87.9365,16.08,1111122 
DISL,ioos:station:DISL:MHPA:1,2017-01-04T02:30:00Z,30.6671,-87.9365,15.91,1111122 
DISL,ioos:station:DISL:MHPA:1,2017-01-04T03:00:00Z,30.6671,-87.9365,15.81,1111122 
DISL,ioos:station:DISL:MHPA:1,2017-01-04T03:30:00Z,30.6671,-87.9365,15.78,1111122 
DISL,ioos:station:DISL:MHPA:1,2017-01-04T04:00:00Z,30.6671,-87.9365,15.54,1111122 
DISL,ioos:station:DISL:MHPA:1,2017-01-04T04:30:00Z,30.6671,-87.9365,15.3,1111122 
DISL,ioos:station:DISL:MHPA:1,2017-01-04T05:00:00Z,30.6671,-87.9365,15.07,1111122 
DISL,ioos:station:DISL:MHPA:1,2017-01-04T05:30:00Z,30.6671,-87.9365,15.1,1111122 
DISL,ioos:station:DISL:MHPA:1,2017-01-04T06:00:00Z,30.6671,-87.9365,14.7,1111122 
DISL,ioos:station:DISL:MHPA:1,2017-01-04T06:30:00Z,30.6671,-87.9365,14.83,1111122 
DISL,ioos:station:DISL:MHPA:1,2017-01-04T07:00:00Z,30.6671,-87.9365,14.86,1111122 
DISL,ioos:station:DISL:MHPA:1,2017-01-04T07:30:00Z,30.6671,-87.9365,14.76,1111122 
DISL,ioos:station:DISL:MHPA:1,2017-01-04T08:00:00Z,30.6671,-87.9365,15.07,1111122 
DISL,ioos:station:DISL:MHPA:1,2017-01-04T08:30:00Z,30.6671,-87.9365,15.03,1111122 
DISL,ioos:station:DISL:MHPA:1,2017-01-04T09:00:00Z,30.6671,-87.9365,14.66,1111122 
DISL,ioos:station:DISL:MHPA:1,2017-01-04T09:30:00Z,30.6671,-87.9365,14.22,1111122 
DISL,ioos:station:DISL:MHPA:1,2017-01-04T10:00:00Z,30.6671,-87.9365,13.62,1111122 
DISL,ioos:station:DISL:MHPA:1,2017-01-04T10:30:00Z,30.6671,-87.9365,13.05,1111122 
DISL,ioos:station:DISL:MHPA:1,2017-01-04T11:00:00Z,30.6671,-87.9365,12.58,1111122 
DISL,ioos:station:DISL:MHPA:1,2017-01-04T11:30:00Z,30.6671,-87.9365,12.69,1111122 
DISL,ioos:station:DISL:MHPA:1,2017-01-04T12:00:00Z,30.6671,-87.9365,12.86,1111122 
DISL,ioos:station:DISL:MHPA:1,2017-01-04T12:30:00Z,30.6671,-87.9365,12.79,1111122 
DISL,ioos:station:DISL:MHPA:1,2017-01-04T13:00:00Z,30.6671,-87.9365,12.86,1111122 
DISL,ioos:station:DISL:MHPA:1,2017-01-04T13:30:00Z,30.6671,-87.9365,13.02,1111122 
DISL,ioos:station:DISL:MHPA:1,2017-01-04T14:00:00Z,30.6671,-87.9365,13.26,1111122 
DISL,ioos:station:DISL:MHPA:1,2017-01-04T14:30:00Z,30.6671,-87.9365,13.59,1111122 
DISL,ioos:station:DISL:MHPA:1,2017-01-04T15:00:00Z,30.6671,-87.9365,13.92,1111122 
DISL,ioos:station:DISL:MHPA:1,2017-01-04T15:30:00Z,30.6671,-87.9365,14.43,1111122 
DISL,ioos:station:DISL:MHPA:1,2017-01-04T16:00:00Z,30.6671,-87.9365,14.59,1111122 
DISL,ioos:station:DISL:MHPA:1,2017-01-04T16:30:00Z,30.6671,-87.9365,14.25,1111122 
DISL,ioos:station:DISL:MHPA:1,2017-01-04T17:00:00Z,30.6671,-87.9365,14.68,1111122 
DISL,ioos:station:DISL:MHPA:1,2017-01-04T17:30:00Z,30.6671,-87.9365,15.08,1111122 
DISL,ioos:station:DISL:MHPA:1,2017-01-04T18:00:00Z,30.6671,-87.9365,15.08,1111122 
DISL,ioos:station:DISL:MHPA:1,2017-01-04T18:30:00Z,30.6671,-87.9365,14.68,1111122 
DISL,ioos:station:DISL:MHPA:1,2017-01-04T19:00:00Z,30.6671,-87.9365,14.71,1111122 
DISL,ioos:station:DISL:MHPA:1,2017-01-04T19:30:00Z,30.6671,-87.9365,14.85,1111122 
DISL,ioos:station:DISL:MHPA:1,2017-01-04T20:00:00Z,30.6671,-87.9365,14.31,1111122 
DISL,ioos:station:DISL:MHPA:1,2017-01-04T20:30:00Z,30.6671,-87.9365,14.08,1111122 
DISL,ioos:station:DISL:MHPA:1,2017-01-04T21:00:00Z,30.6671,-87.9365,13.61,1111122 
DISL,ioos:station:DISL:MHPA:1,2017-01-04T21:30:00Z,30.6671,-87.9365,13.24,1111122 
DISL,ioos:station:DISL:MHPA:1,2017-01-04T22:00:00Z,30.6671,-87.9365,12.6,1111122 
DISL,ioos:station:DISL:MHPA:1,2017-01-04T22:30:00Z,30.6671,-87.9365,11.79,1111122 
DISL,ioos:station:DISL:MHPA:1,2017-01-04T23:00:00Z,30.6671,-87.9365,11.1,1111122 
DISL,ioos:station:DISL:MHPA:1,2017-01-04T23:30:00Z,30.6671,-87.9365,10.73,1111122 
DISL,ioos:station:DISL:MHPA:1,2017-01-05T00:00:00Z,30.6671,-87.9365,10.63,1111122 
DISL,ioos:station:DISL:MHPA:1,2017-01-05T00:30:00Z,30.6671,-87.9365,10.43,1111122 
DISL,ioos:station:DISL:MHPA:1,2017-01-05T01:00:00Z,30.6671,-87.9365,10.36,1111122 
DISL,ioos:station:DISL:MHPA:1,2017-01-05T01:30:00Z,30.6671,-87.9365,10.06,1111122 
DISL,ioos:station:DISL:MHPA:1,2017-01-05T02:00:00Z,30.6671,-87.9365,9.73,1111122 
DISL,ioos:station:DISL:MHPA:1,2017-01-05T02:30:00Z,30.6671,-87.9365,9.32,1111122 
DISL,ioos:station:DISL:MHPA:1,2017-01-05T03:00:00Z,30.6671,-87.9365,9.09,1111122 
DISL,ioos:station:DISL:MHPA:1,2017-01-05T03:30:00Z,30.6671,-87.9365,8.75,1111122 
DISL,ioos:station:DISL:MHPA:1,2017-01-05T04:00:00Z,30.6671,-87.9365,8.48,1111122 
DISL,ioos:station:DISL:MHPA:1,2017-01-05T04:30:00Z,30.6671,-87.9365,8.17,1111122 
DISL,ioos:station:DISL:MHPA:1,2017-01-05T05:00:00Z,30.6671,-87.9365,7.844,1111122 
DISL,ioos:station:DISL:MHPA:1,2017-01-05T05:30:00Z,30.6671,-87.9365,7.645,1111122 
DISL,ioos:station:DISL:MHPA:1,2017-01-05T06:30:00Z,30.6671,-87.9365,7.311,1111122 
DISL,ioos:station:DISL:MHPA:1,2017-01-05T07:00:00Z,30.6671,-87.9365,7.075,1111122 
DISL,ioos:station:DISL:MHPA:1,2017-01-05T07:30:00Z,30.6671,-87.9365,6.808,1111122 
DISL,ioos:station:DISL:MHPA:1,2017-01-05T08:00:00Z,30.6671,-87.9365,6.778,1111122 
DISL,ioos:station:DISL:MHPA:1,2017-01-05T08:30:00Z,30.6671,-87.9365,6.914,1111122 
DISL,ioos:station:DISL:MHPA:1,2017-01-05T09:00:00Z,30.6671,-87.9365,6.88,1111122 
DISL,ioos:station:DISL:MHPA:1,2017-01-05T09:30:00Z,30.6671,-87.9365,6.778,1111122 
DISL,ioos:station:DISL:MHPA:1,2017-01-05T10:00:00Z,30.6671,-87.9365,6.439,1111122 
DISL,ioos:station:DISL:MHPA:1,2017-01-05T10:30:00Z,30.6671,-87.9365,6.203,1111122 
DISL,ioos:station:DISL:MHPA:1,2017-01-05T11:00:00Z,30.6671,-87.9365,6.169,1111122 
DISL,ioos:station:DISL:MHPA:1,2017-01-05T11:30:00Z,30.6671,-87.9365,6.136,1111122 
DISL,ioos:station:DISL:MHPA:1,2017-01-05T12:00:00Z,30.6671,-87.9365,6.508,1111122 
DISL,ioos:station:DISL:MHPA:1,2017-01-05T12:30:00Z,30.6671,-87.9365,6.096,1111122 
DISL,ioos:station:DISL:MHPA:1,2017-01-05T13:00:00Z,30.6671,-87.9365,5.96,1111122 
DISL,ioos:station:DISL:MHPA:1,2017-01-05T13:30:00Z,30.6671,-87.9365,6.469,1111122 
DISL,ioos:station:DISL:MHPA:1,2017-01-05T14:00:00Z,30.6671,-87.9365,7.379,1111122 
DISL,ioos:station:DISL:MHPA:1,2017-01-05T14:30:00Z,30.6671,-87.9365,7.506,1111122 
DISL,ioos:station:DISL:MHPA:1,2017-01-05T15:00:00Z,30.6671,-87.9365,8.14,1111122 
DISL,ioos:station:DISL:MHPA:1,2017-01-05T15:30:00Z,30.6671,-87.9365,9.18,1111122 
DISL,ioos:station:DISL:MHPA:1,2017-01-05T16:00:00Z,30.6671,-87.9365,10.19,1111122 
DISL,ioos:station:DISL:MHPA:1,2017-01-05T16:30:00Z,30.6671,-87.9365,10.95,1111122 
DISL,ioos:station:DISL:MHPA:1,2017-01-05T17:00:00Z,30.6671,-87.9365,11.96,1111122 
DISL,ioos:station:DISL:MHPA:1,2017-01-05T17:30:00Z,30.6671,-87.9365,11.98,1111122 
DISL,ioos:station:DISL:MHPA:1,2017-01-05T18:00:00Z,30.6671,-87.9365,12.42,1111122 
DISL,ioos:station:DISL:MHPA:1,2017-01-05T18:30:00Z,30.6671,-87.9365,13.07,1111122 
DISL,ioos:station:DISL:MHPA:1,2017-01-05T19:00:00Z,30.6671,-87.9365,14.25,1111122 
DISL,ioos:station:DISL:MHPA:1,2017-01-05T19:30:00Z,30.6671,-87.9365,14.55,1111122 
DISL,ioos:station:DISL:MHPA:1,2017-01-05T20:00:00Z,30.6671,-87.9365,15.02,1111122 
DISL,ioos:station:DISL:MHPA:1,2017-01-05T20:30:00Z,30.6671,-87.9365,15.08,1111122 
DISL,ioos:station:DISL:MHPA:1,2017-01-05T21:00:00Z,30.6671,-87.9365,14.95,1111122 
DISL,ioos:station:DISL:MHPA:1,2017-01-05T21:30:00Z,30.6671,-87.9365,15.23,1111122 
DISL,ioos:station:DISL:MHPA:1,2017-01-05T22:00:00Z,30.6671,-87.9365,15.34,1111122 
DISL,ioos:station:DISL:MHPA:1,2017-01-05T22:30:00Z,30.6671,-87.9365,15.41,1111122 
DISL,ioos:station:DISL:MHPA:1,2017-01-05T23:00:00Z,30.6671,-87.9365,15.51,1111122 
DISL,ioos:station:DISL:MHPA:1,2017-01-05T23:30:00Z,30.6671,-87.9365,15.44,1111122 
DISL,ioos:station:DISL:MHPA:1,2017-01-06T00:00:00Z,30.6671,-87.9365,15.41,1111122 
DISL,ioos:station:DISL:MHPA:1,2017-01-06T00:30:00Z,30.6671,-87.9365,15.03,1111122 
DISL,ioos:station:DISL:MHPA:1,2017-01-06T01:00:00Z,30.6671,-87.9365,14.7,1111122 
DISL,ioos:station:DISL:MHPA:1,2017-01-06T01:30:00Z,30.6671,-87.9365,14.09,1111122 
DISL,ioos:station:DISL:MHPA:1,2017-01-06T02:00:00Z,30.6671,-87.9365,14.13,1111122 
DISL,ioos:station:DISL:MHPA:1,2017-01-06T02:30:00Z,30.6671,-87.9365,14.47,1111122 
DISL,ioos:station:DISL:MHPA:1,2017-01-06T03:00:00Z,30.6671,-87.9365,14.94,1111122 
DISL,ioos:station:DISL:MHPA:1,2017-01-06T03:30:00Z,30.6671,-87.9365,14.76,1111122 
DISL,ioos:station:DISL:MHPA:1,2017-01-06T04:00:00Z,30.6671,-87.9365,13.68,1111122 
DISL,ioos:station:DISL:MHPA:1,2017-01-06T04:30:00Z,30.6671,-87.9365,13.38,1111122 
DISL,ioos:station:DISL:MHPA:1,2017-01-06T05:00:00Z,30.6671,-87.9365,13.29,1111122 
DISL,ioos:station:DISL:MHPA:1,2017-01-06T05:30:00Z,30.6671,-87.9365,13.15,1111122 
DISL,ioos:station:DISL:MHPA:1,2017-01-06T06:00:00Z,30.6671,-87.9365,12.71,1111122 
DISL,ioos:station:DISL:MHPA:1,2017-01-06T06:30:00Z,30.6671,-87.9365,12.08,1111122 
DISL,ioos:station:DISL:MHPA:1,2017-01-06T07:00:00Z,30.6671,-87.9365,11.71,1111122 
DISL,ioos:station:DISL:MHPA:1,2017-01-06T07:30:00Z,30.6671,-87.9365,11.57,1111122 
DISL,ioos:station:DISL:MHPA:1,2017-01-06T08:00:00Z,30.6671,-87.9365,11.48,1111122 
DISL,ioos:station:DISL:MHPA:1,2017-01-06T08:30:00Z,30.6671,-87.9365,11.24,1111122 
DISL,ioos:station:DISL:MHPA:1,2017-01-06T09:00:00Z,30.6671,-87.9365,11.0,1111122 
DISL,ioos:station:DISL:MHPA:1,2017-01-06T09:30:00Z,30.6671,-87.9365,10.86,1111122 
DISL,ioos:station:DISL:MHPA:1,2017-01-06T10:00:00Z,30.6671,-87.9365,10.56,1111122 
DISL,ioos:station:DISL:MHPA:1,2017-01-06T10:30:00Z,30.6671,-87.9365,10.13,1111122 
DISL,ioos:station:DISL:MHPA:1,2017-01-06T11:00:00Z,30.6671,-87.9365,9.96,1111122 
DISL,ioos:station:DISL:MHPA:1,2017-01-06T11:30:00Z,30.6671,-87.9365,9.46,1111122 
DISL,ioos:station:DISL:MHPA:1,2017-01-06T12:00:00Z,30.6671,-87.9365,9.02,1111122 
DISL,ioos:station:DISL:MHPA:1,2017-01-06T12:30:00Z,30.6671,-87.9365,8.24,1111122 
DISL,ioos:station:DISL:MHPA:1,2017-01-06T13:00:00Z,30.6671,-87.9365,7.667,1111122 
DISL,ioos:station:DISL:MHPA:1,2017-01-06T13:30:00Z,30.6671,-87.9365,7.126,1111122 
DISL,ioos:station:DISL:MHPA:1,2017-01-06T14:00:00Z,30.6671,-87.9365,6.794,1111122 
DISL,ioos:station:DISL:MHPA:1,2017-01-06T14:30:00Z,30.6671,-87.9365,6.425,1111122 
DISL,ioos:station:DISL:MHPA:1,2017-01-06T15:00:00Z,30.6671,-87.9365,6.295,1111122 
DISL,ioos:station:DISL:MHPA:1,2017-01-06T15:30:00Z,30.6671,-87.9365,6.263,1111122 
DISL,ioos:station:DISL:MHPA:1,2017-01-06T16:00:00Z,30.6671,-87.9365,6.263,1111122 
DISL,ioos:station:DISL:MHPA:1,2017-01-06T16:30:00Z,30.6671,-87.9365,5.857,1111122 
DISL,ioos:station:DISL:MHPA:1,2017-01-06T17:00:00Z,30.6671,-87.9365,5.384,1111122 
DISL,ioos:station:DISL:MHPA:1,2017-01-06T17:30:00Z,30.6671,-87.9365,5.147,1111122 
DISL,ioos:station:DISL:MHPA:1,2017-01-06T18:00:00Z,30.6671,-87.9365,4.844,1111122 
DISL,ioos:station:DISL:MHPA:1,2017-01-06T18:30:00Z,30.6671,-87.9365,4.24,1111122 
DISL,ioos:station:DISL:MHPA:1,2017-01-06T19:00:00Z,30.6671,-87.9365,3.768,1111122 
DISL,ioos:station:DISL:MHPA:1,2017-01-06T19:30:00Z,30.6671,-87.9365,3.635,1111122 
DISL,ioos:station:DISL:MHPA:1,2017-01-06T20:00:00Z,30.6671,-87.9365,3.301,1111122 
DISL,ioos:station:DISL:MHPA:1,2017-01-06T20:30:00Z,30.6671,-87.9365,2.963,1111122 
DISL,ioos:station:DISL:MHPA:1,2017-01-06T21:00:00Z,30.6671,-87.9365,2.659,1111122 
DISL,ioos:station:DISL:MHPA:1,2017-01-06T21:30:00Z,30.6671,-87.9365,2.693,1111122 
DISL,ioos:station:DISL:MHPA:1,2017-01-06T22:00:00Z,30.6671,-87.9365,2.761,1111122 
DISL,ioos:station:DISL:MHPA:1,2017-01-06T22:30:00Z,30.6671,-87.9365,2.626,1111122 
DISL,ioos:station:DISL:MHPA:1,2017-01-06T23:00:00Z,30.6671,-87.9365,2.592,1111122 
DISL,ioos:station:DISL:MHPA:1,2017-01-06T23:30:00Z,30.6671,-87.9365,2.422,1111122 
DISL,ioos:station:DISL:MHPA:1,2017-01-07T00:00:00Z,30.6671,-87.9365,2.559,1111122 
DISL,ioos:station:DISL:MHPA:1,2017-01-07T00:30:00Z,30.6671,-87.9365,2.426,1111122 
DISL,ioos:station:DISL:MHPA:1,2017-01-07T01:00:00Z,30.6671,-87.9365,2.359,1111122 
DISL,ioos:station:DISL:MHPA:1,2017-01-07T01:30:00Z,30.6671,-87.9365,2.191,1111122 
DISL,ioos:station:DISL:MHPA:1,2017-01-07T02:00:00Z,30.6671,-87.9365,2.226,1111122 
DISL,ioos:station:DISL:MHPA:1,2017-01-07T02:30:00Z,30.6671,-87.9365,2.26,1111122 
DISL,ioos:station:DISL:MHPA:1,2017-01-07T03:00:00Z,30.6671,-87.9365,2.091,1111122 
DISL,ioos:station:DISL:MHPA:1,2017-01-07T03:30:00Z,30.6671,-87.9365,1.786,1111122 
DISL,ioos:station:DISL:MHPA:1,2017-01-07T04:00:00Z,30.6671,-87.9365,1.854,1111122 
DISL,ioos:station:DISL:MHPA:1,2017-01-07T04:30:00Z,30.6671,-87.9365,2.059,1111122 
DISL,ioos:station:DISL:MHPA:1,2017-01-07T05:00:00Z,30.6671,-87.9365,1.621,1111122 
DISL,ioos:station:DISL:MHPA:1,2017-01-07T05:30:00Z,30.6671,-87.9365,1.521,1111122 
DISL,ioos:station:DISL:MHPA:1,2017-01-07T06:00:00Z,30.6671,-87.9365,0.711,1111122 
DISL,ioos:station:DISL:MHPA:1,2017-01-07T06:30:00Z,30.6671,-87.9365,0.44,1111122 
DISL,ioos:station:DISL:MHPA:1,2017-01-07T07:00:00Z,30.6671,-87.9365,0.0,1114422 
DISL,ioos:station:DISL:MHPA:1,2017-01-07T07:30:00Z,30.6671,-87.9365,0.0,1114422 
DISL,ioos:station:DISL:MHPA:1,2017-01-07T08:00:00Z,30.6671,-87.9365,0.0,1114422 
DISL,ioos:station:DISL:MHPA:1,2017-01-07T08:30:00Z,30.6671,-87.9365,0.0,1114422 
DISL,ioos:station:DISL:MHPA:1,2017-01-07T09:00:00Z,30.6671,-87.9365,0.0,1114422 
DISL,ioos:station:DISL:MHPA:1,2017-01-07T09:30:00Z,30.6671,-87.9365,0.0,1114422 